KL-BETA A

Satellite information

Favourite Embed

Satellite Type and Status

PAYLOADIN ORBIT

Key statistics

Satellite KL-BETA A at a glance.

Uptime

1593

Days in orbit

Revolutions

≈ 13.9

Per day

Orbit

LEO

Low Earth Orbit

Inclination

89.0

Latest

Satellite identification and parameters

Extended collection of information and parameters for KL-BETA A.

Object identification

Identified? True

Debris? False

Object name: KL-BETA A

International designator: 2021-070A

Object number (NORAD): 49059

Object ID (CCSDS): 49059

Country: GERMANY (GER)

Current information (Y/N): Y

RCS size: LARGE

Orbital parameters

Period: 103.273 minutes

Inclination: 88.9955 deg

SMA: 7291.54 km

Apoapsis: 913.984 km

Periapsis: 912.825 km

RAAN: 238.7176 deg

Eccentricy: 0.00007941

Argument of periapsis: 80.0812 deg

Mean anomaly: 280.0454 deg

Mean motion: 13.94356766 rev/day

Mean motion (dot): 0.0000026 rev/day2

B* drag term: 0.00018548582 1/REarth

Two-line elements (TLE)

Creation date: Dec. 14, 2025, 3:07 a.m.

Reference frame: TEME

Reference center: EARTH

Epoch: Dec. 13, 2025, 5:05 p.m. UTC

TLE line 0: 0 KL-BETA A

TLE line 1: 1 49059U 21070A 25347.71223626 .00000260 00000-0 18549-3 0 9995

TLE line 2: 2 49059 88.9955 238.7176 0000794 80.0812 280.0454 13.94356766222083

Live tracking on map

Real-time ground track for satellite KL-BETA A.

In-orbit conjunctions

There are no conjunctions computed for KL-BETA A, at the moment. Check back to stay up to date, as we update our databases every day.

Go to all conjunctions

Associated space launch

The KL-Beta A and B, satellites are test satellites for a global multimedia satellite system for the German company KLEO Connect and the Chinese company Shanghai Spacecom Satellite Technology. The satellites were built by CAS Microspace and feature a Ka-band communications payload. The prototype system also includes another satellite “GMS-T” built by OHB System of Germany.

KL-BETA A was lifted into orbit during the mission ‘Long March 6 | KL-Beta’, on board a Long March 6 space rocket.

The launch took place on Aug. 4, 2021, 11:01 a.m. from Launch Complex 16.

For more information about the launch, click the button.

Launch to space Long March 6 | KL-Beta
Long March 6 | KL-Beta

Agency: N/A

Status: Launch Successful

Launch date: Aug. 4, 2021, 11:01 a.m. UTC

Rocket: Long March 6

Launch pad: Launch Complex 16

Location: Taiyuan Satellite Launch Center, People's Republic of China

...

Latest news about this satellite

News about space launch
China places two KL-Beta satellites into orbit

Without previous warning or announcement, China’s space agency launched two satellites from Launch Complex 16 at the Taiyuan Satellite Launch Center on Wednesday, August 4. The two payloads, called “KL-Beta-A” and “KL-Beta-B,” launched on a Chang Zheng 6 ...

News about space launch
Chinese rocket launches two small satellites to test communications tech

A Chinese rocket successfully launched Wednesday with a pair of small communications satellites reportedly linked to a secretive German company. The Chinese institute that built the satellites said they will test laser communications and electric thruster...


Newsletter sign-up

Weekly statistics, charts and insights to help you stay on top of the space industry.